www.pogodaiklimat.ru

Погода и климат >> Архив погоды >> Австралия >> Западная Австралия >> Аэропорт Аргайл


ПОГОДА в Аэропорту Аргайл

  • Прогноз погоды в Аэропорту Аргайл
  • Монитор погоды в Аэропорту Аргайл

АРХИВ ПОГОДЫ в Аэропорту Аргайл

Время (UTC), дата Ветер
(напр.,м/с)
 
Видим.   Явления Облачность Т
(С)
Тd
(С)
f
(%)
Тe
(С)
Тes
(С)
Комфортность P
(гПа)
Po
(гПа)
Тmin
(С)
Tmax
(С)
R
(мм)
R24
(мм)
S
(см)
22 8.06 штиль 0 н/о н/о +17.4 +6.3 48 +17 +17 1015.9 996.8
00 9.06 ЮВ 1 н/о н/о +24.2 +8.6 37 +25 +25 комфорт 1017.0 997.9
01 9.06 В 3 н/о н/о +25.9 +11.6 41 +27 +27 жарко 1016.9 997.8 +17.3
03 9.06 СВ 3 н/о н/о +29.1 +12.5 36 +30 +30 жарко 1015.3 996.3
04 9.06 СЗ 3 н/о н/о +30.0 +11.0 31 +30 +30 жарко 1014.3 995.3
06 9.06 ЮВ 2 н/о н/о +31.2 +9.4 26 +31 +31 жарко 1013.1 994.1
07 9.06 ЮЗ 3 н/о н/о +31.2 +9.4 26 +31 +31 жарко 1013.1 994.1
10 9.06 ЮВ 2 н/о н/о +27.0 +8.9 32 +27 +27 жарко 1013.9 994.9
12 9.06 З 2 н/о н/о +23.7 +9.3 40 +25 +25 комфорт 1015.1 996.1
13 9.06 З 2 н/о н/о +23.1 +9.5 42 +25 +25 комфорт 1015.2 996.2 +32.1
15 9.06 ЮЗ 2 н/о н/о +23.8 +10.1 42 +25 +25 комфорт 1014.6 995.6
16 9.06 штиль 0 н/о н/о +20.8 +9.7 49 +22 +22 комфорт 1014.5 995.5
18 9.06 штиль 0 н/о н/о +20.5 +10.3 52 +22 +22 комфорт 1013.6 994.6
19 9.06 Ю 2 н/о н/о +19.9 +9.5 51 +22 +22 комфорт 1013.3 994.3
21 9.06 ЮВ 3 н/о н/о +17.6 +9.5 59 +18 +18 1013.5 994.5
22 9.06 штиль 0 н/о н/о +18.3 +9.4 56 +19 +19 1014.0 995.0
00 10.06 штиль 0 н/о н/о +25.7 +9.5 36 +26 +26 жарко 1014.8 995.8
01 10.06 ЮЗ 2 н/о н/о +28.1 +9.4 31 +28 +28 жарко 1014.6 995.6 +17.5
03 10.06 В 4 н/о н/о +31.7 +8.0 23 +31 +31 жарко 1013.3 994.3
04 10.06 СВ 6 н/о н/о +33.1 +8.5 22 +32 +32 жарко 1011.7 992.7
06 10.06 В 2 н/о н/о +33.5 +8.2 21 +32 +32 жарко 1010.4 991.4
07 10.06 В 3 н/о н/о +33.4 +8.1 21 +32 +32 жарко 1010.0 991.1
10 10.06 С 2 н/о н/о +29.4 +8.5 27 +29 +29 жарко 1011.8 992.8
12 10.06 З 2 н/о н/о +28.4 +9.6 31 +28 +28 жарко 1013.2 994.2
13 10.06 ЮЗ 2 н/о н/о +25.5 +8.1 33 +26 +26 жарко 1013.4 994.4 +34.2
15 10.06 В 2 н/о н/о +24.7 +8.6 36 +25 +25 комфорт 1013.6 994.6
16 10.06 штиль 0 н/о н/о +23.4 +8.7 39 +25 +25 комфорт 1013.7 994.7
18 10.06 ЮЗ 2 н/о н/о +23.1 +10.2 44 +25 +25 комфорт 1013.2 994.2
19 10.06 Ю 2 н/о н/о +23.1 +9.1 41 +25 +25 комфорт 1013.2 994.2
21 10.06 ЮЗ 2 н/о н/о +22.7 +9.8 44 +24 +24 комфорт 1013.9 994.9
22 10.06 штиль 0 н/о н/о +20.8 +9.1 47 +22 +22 комфорт 1014.6 995.6
00 11.06 З 2 н/о н/о +26.5 +9.8 35 +27 +27 жарко 1016.3 997.2
01 11.06 С 2 н/о н/о +29.0 +10.2 31 +29 +29 жарко 1016.4 997.3 +20.7
03 11.06 С 4 н/о н/о +32.0 +13.2 32 +33 +33 жарко 1014.9 995.9
04 11.06 С 4 н/о 1/0 2000 м
[]
+32.8 +13.4 31 +34 +43 очень
жарко
1013.7 994.7
06 11.06 СВ 4 н/о н/о +33.7 +13.7 30 +35 +35 очень
жарко
1012.2 993.2
07 11.06 СВ 3 н/о н/о +33.9 +13.9 30 +35 +35 очень
жарко
1012.3 993.3
10 11.06 СВ 2 н/о н/о +29.6 +15.0 41 +32 +32 душно 1013.9 994.9
12 11.06 З 2 н/о н/о +27.7 +14.7 45 +30 +30 жарко 1015.0 996.0
13 11.06 З 3 н/о н/о +27.3 +15.3 48 +30 +30 душно 1015.0 996.0 +34.9
15 11.06 ЮВ 3 н/о н/о +24.6 +14.7 54 +27 +27 жарко 1014.7 995.7
16 11.06 В 2 н/о н/о +25.7 +15.4 53 +29 +29 душно 1014.5 995.5
18 11.06 В 2 н/о н/о +23.9 +14.9 57 +27 +27 жарко 1014.3 995.3
19 11.06 ЮЗ 3 н/о н/о +24.0 +15.5 59 +27 +27 жарко 1014.4 995.4
21 11.06 В 3 н/о н/о +22.1 +14.7 63 +25 +25 комфорт 1015.0 996.0
22 11.06 В 1 н/о н/о +22.1 +14.2 61 +25 +25 комфорт 1015.9 996.8
00 12.06 В 3 н/о н/о +29.2 +13.0 37 +31 +31 жарко 1017.2 998.1
01 12.06 В 2 н/о н/о +29.9 +12.3 34 +31 +31 жарко 1017.2 998.1 +22.0
03 12.06 ЮВ 2 н/о н/о +32.6 +12.8 30 +33 +33 жарко 1015.4 996.4
04 12.06 СВ 3 н/о н/о +33.2 +12.8 29 +34 +34 очень
жарко
1014.1 995.1
06 12.06 СВ 3 н/о н/о +34.4 +14.3 30 +36 +36 душно 1012.3 993.3
07 12.06 СВ 4 н/о н/о +34.7 +14.6 30 +36 +36 душно 1012.4 993.4
10 12.06 С 3 н/о н/о +31.2 +14.8 37 +33 +33 жарко 1013.7 994.7
12 12.06 ЮЗ 3 н/о н/о +29.8 +15.1 41 +32 +32 душно 1014.5 995.5
13 12.06 Ю 1 н/о н/о +29.4 +14.4 40 +31 +31 жарко 1014.6 995.6 +35.2
15 12.06 Ю 3 н/о н/о +28.5 +14.0 41 +30 +30 жарко 1014.2 995.2
16 12.06 Ю 3 н/о 1/0 2000 м
[]
+28.9 +11.9 35 +30 +30 жарко 1014.3 995.3
18 12.06 З 3 н/о н/о +26.8 +11.7 39 +28 +28 жарко 1013.6 994.6
19 12.06 Ю 2 н/о н/о +27.6 +11.6 37 +29 +29 жарко 1013.4 994.4
21 12.06 Ю 2 н/о н/о +24.9 +12.5 46 +27 +27 жарко 1014.0 995.0
22 12.06 Ю 2 н/о н/о +24.7 +12.3 46 +26 +26 жарко 1014.5 995.5
00 13.06 Ю 3 н/о н/о +28.5 +11.6 35 +29 +29 жарко 1016.0 996.9
01 13.06 ЮВ 4 н/о н/о +30.0 +11.5 32 +31 +31 жарко 1016.0 996.9 +24.2
03 13.06 В 3 н/о н/о +33.4 +11.9 27 +33 +33 жарко 1014.3 995.3
04 13.06 СВ 3 н/о н/о +33.7 +12.1 27 +34 +34 очень
жарко
1013.1 994.1
06 13.06 З 3 н/о н/о +35.2 +12.2 25 +35 +35 очень
жарко
1011.6 992.6
07 13.06 С 3 н/о н/о +34.7 +12.4 26 +35 +35 очень
жарко
1011.4 992.4
10 13.06 С 3 н/о н/о +31.3 +12.2 31 +32 +32 жарко 1012.6 993.6
12 13.06 ЮЗ 3 н/о н/о +29.1 +12.1 35 +30 +30 жарко 1013.8 994.8
13 13.06 ЮЗ 2 н/о н/о +29.1 +12.5 36 +30 +30 жарко 1014.1 995.1 +35.7
15 13.06 ЮЗ 3 н/о н/о +27.6 +13.2 41 +29 +29 жарко 1013.7 994.7
16 13.06 В 3 н/о н/о +24.4 +12.4 47 +26 +26 жарко 1013.7 994.7
18 13.06 З 2 н/о н/о +23.9 +12.8 50 +26 +26 жарко 1013.0 994.0
19 13.06 ЮЗ 3 н/о н/о +24.4 +13.0 49 +26 +26 жарко 1012.7 993.7
21 13.06 Ю 3 н/о н/о +24.2 +12.5 48 +26 +26 жарко 1013.3 994.3
22 13.06 Ю 3 н/о н/о +23.9 +12.8 50 +26 +26 жарко 1014.0 995.0
00 14.06 ЮВ 2 н/о н/о +29.1 +12.5 36 +30 +30 жарко 1015.1 996.1
01 14.06 В 4 н/о н/о +30.3 +11.3 31 +31 +31 жарко 1015.1 996.1 +23.3
03 14.06 С 4 н/о н/о +33.0 +11.5 27 +33 +33 жарко 1013.7 994.7
04 14.06 СВ 4 н/о н/о +34.1 +12.4 27 +34 +34 очень
жарко
1012.6 993.6
06 14.06 СВ 4 н/о н/о +34.2 +13.6 29 +35 +35 очень
жарко
1011.0 992.0
07 14.06 СВ 3 н/о н/о +34.0 +13.5 29 +35 +35 очень
жарко
1010.7 991.7
10 14.06 СВ 3 н/о н/о +30.5 +13.7 36 +32 +32 жарко 1012.2 993.2
12 14.06 З 2 н/о н/о +28.4 +13.9 41 +30 +30 жарко 1013.1 994.1
13 14.06 З 3 н/о н/о +27.6 +14.3 44 +30 +30 жарко 1013.2 994.2 +35.2
15 14.06 С 2 н/о н/о +26.3 +14.7 49 +29 +29 жарко 1013.4 994.4
16 14.06 штиль 0 н/о н/о +25.0 +14.5 52 +28 +28 жарко 1013.2 994.2
18 14.06 штиль 0 н/о н/о +24.3 +14.4 54 +27 +27 жарко 1012.9 993.9
19 14.06 штиль 0 н/о н/о +23.8 +14.5 56 +26 +26 жарко 1012.9 993.9
21 14.06 ЮВ 1 н/о н/о +23.6 +14.9 58 +26 +26 жарко 1013.6 994.6
22 14.06 штиль 0 н/о н/о +23.4 +14.4 57 +27 +27 душно 1014.3 995.3
00 15.06 В 3 н/о н/о +28.5 +12.0 36 +30 +30 жарко 1015.7 996.6
01 15.06 В 5 н/о н/о +30.1 +11.6 32 +31 +31 жарко 1015.9 996.8 +22.9
03 15.06 С 4 н/о н/о +32.1 +12.3 30 +33 +33 жарко 1014.4 995.4
04 15.06 С 5 н/о н/о +34.0 +12.4 27 +34 +34 очень
жарко
1013.4 994.4
06 15.06 В 4 н/о н/о +34.1 +11.9 26 +34 +34 очень
жарко
1011.9 992.9
07 15.06 В 3 н/о н/о +33.8 +11.6 26 +34 +34 очень
жарко
1011.8 992.8
10 15.06 СВ 2 н/о н/о +29.9 +11.9 33 +31 +31 жарко 1012.9 993.9
12 15.06 З 3 н/о н/о +27.9 +11.9 37 +29 +29 жарко 1013.9 994.9
13 15.06 З 3 н/о н/о +26.9 +12.2 40 +28 +28 жарко 1013.8 994.8 +34.7
15 15.06 С 2 н/о н/о +25.5 +12.4 44 +27 +27 жарко 1013.5 994.5
16 15.06 СЗ 2 н/о н/о +24.7 +12.3 46 +26 +26 жарко 1013.4 994.4
18 15.06 штиль 0 н/о н/о +24.0 +14.1 54 +26 +26 жарко 1013.0 994.0
19 15.06 ЮЗ 2 н/о 1/0
[]
+24.8 +14.6 53 +27 +27 жарко 1013.1 994.1
21 15.06 Ю 3 н/о н/о +24.3 +13.5 51 +27 +27 жарко 1013.7 994.7

 

Местоположение метеостанции Аэропорт Аргайл (Западная Австралия, Австралия): широта -16.63 долгота 128.45 высота над уровнем моря 165 м.

В архиве по умолчанию представлена погода в Аэропорту Аргайл за последнюю неделю. Архивные данные за месяц целиком и за предыдущие месяцы, начиная с января 2011 года, Вы можете получить, выбрав интересующий диапазон дат из раскрывающегося списка и нажав кнопку "Ввод!".


*Определитесь, кто Вы:
робот инопланетянин человек

Внимание! Время в таблицах - всемирное. Для получения местного времени необходимо прибавить поправку, которая равна 8 ч.

Смотрите также архив погоды в соседних городах и на ближайших метеорологических станциях:

Погода в Кунунарре (Западная Австралия, Австралия) (99 км)
Погода в Уиндеме (Западная Австралия, Австралия) (130 км)
Погода в Холс Крик (Западная Австралия, Австралия) (197 км)
Погода в Виктория-Ривер (Северная территория, Австралия) (275 км)
Погода в Порт Китс (Северная территория, Австралия) (289 км)
Погода в Ладжаману (Северная территория, Австралия) (299 км)
Погода в Манбуллу Ксиро (Северная территория, Австралия) (313 км)
Погода в Калумбуру (Западная Австралия, Австралия) (323 км)
Погода в Фицрой-Кроссинге (Западная Австралия, Австралия) (352 км)
Погода в Трускотте (Западная Австралия, Австралия) (360 км)

Пояснения к столбцам:

Ветер - указаны скорость ветра в м/с - средняя за 10 мин, порывы в срок и между сроками (в фигурных скобках) и направление, откуда дует ветер: С - северный, СВ - северо-восточный, В - восточный, ЮВ - юго-восточный, Ю - южный, ЮЗ - юго-западный, З - западный, СЗ - северо-западный.
Видимость - горизонтальная дальность видимости в метрах или километрах. При видимости от 1 до 10 км при отсутствии осадков обычно наблюдается дымка, при ухудшении видимости до 1 км и менее - туман. В сухую погоду видимость может ухудшаться дымом, пылью или мглою.
Явления - указаны атмосферные явления, наблюдавшиеся в срок или в последний час перед сроком; фигурными скобками обозначены явления, наблюдавшиеся между сроками (за 1-3 часа до срока); квадратными скобками обозначены град или гололедные отложения с указанием их диаметра в мм.
Облачность - указаны через наклонную черту общая и нижняя облачность в баллах и высота нижней границы облаков в метрах; квадратными скобками обозначены формы облаков: Ci - перистые, Cs - перисто-слоистые, Cc - перисто-кучевые, Ac - высококучевые, As - высокослоистые, Sc - слоисто-кучевые, Ns - слоисто-дождевые, Cu - кучевые, Cb - кучево-дождевые. Подробнее классификацию облаков см. в Атласе облаков (PDF).
T - Температура воздуха - температура, измеренная на высоте 2 м над землей.
Td - Температура точки росы - температура, при понижении до которой содержащийся в воздухе водяной пар достигнет насыщения.
f - Относительная влажность воздуха - влажноcть воздуха, измеренная на высоте 2 м над землей.
Te - Эффективная температура - температура, которую ощущает одетый по сезону человек в тени. Характеристика душности погоды. При расчете учитывается влияние влажности воздуха и скорости ветра на теплоощущения человека.
Tes - Эффективная температура на солнце - температура, которую ощущает человек, с поправкой на солнечный нагрев. Характеристика знойности погоды. Зависит от высоты солнца над горизонтом, облачности и скорости ветра. Ночью, в пасмурную погоду, а также при ветре 12 м/с и более поправка равна нулю.
P - Атмосферное давление - приведенное к уровню моря атмосферное давление.
Po - Атмосферное давление - измеренное на уровне метеостанции атмосферное давление.
Tmin - Минимальная температура - минимум температуры воздуха на высоте 2 м над землей.
Tmax - Максимальная температура - максимум температуры воздуха на высоте 2 м над землей.
R - Количество осадков - Количество выпавших осадков за период времени, мм. При наведении курсора мыши на число - период времени, за который выпало указанное количество осадков.
R24 - Количество осадков - Количество выпавших осадков за 24 часа, мм.
S - Снежный покров - Высота снежного покрова, см. При наведении курсора мыши на число - состояние снежного покрова и степень покрытия местности в баллах.